sat.trackr.live / text

‹ back to catalog

BASIL

NORAD 65301 · 2025-185E

PAYLOAD ACTIVE UNKNOWN

§ Identity

Operator
Country
RWA
Launch date
2025-08-23
Launch site
RLLB
Launch vehicle
Mass (kg)
RCS (m²)

External: N2YO · Heavens-Above · Gunter

§ Orbital elements

Epoch: 2026-05-25T05:01:38.735040Z

Period
97.37 min
Inclination
97.9642°
Eccentricity
0.0016841
Mean motion
14.78838041 rev/d
Perigee alt
621.2 km
Apogee alt
644.8 km
Semi-major
7,011.1 km
B*
7.4660e-4
RAAN
228.8119°
Arg perigee
151.1961°
Mean anomaly
209.0183°
Rev number
4,044

§ Raw data

BASIL1 65301U 25185E   26145.20947610  .00005458  00000+0  74660-3 0  99902 65301  97.9642 228.8119 0016841 151.1961 209.0183 14.78838041 40448

JSON: /api/v1/satellites/65301 · /tle

For live sub-satellite position, see the globe view (requires WebGL).

§ Visibility from observer

Set your observer location to see the next 7 days of passes ≥ 10°. The values pass through the URL so the page stays shareable.

No JS? Fill the form by hand. The geolocation button needs JavaScript.